GW1938 Weather Reports


time (UTC)temp
F
wind
direction
speed
knots
gust
knots
rain 1hr
in
rain 24hr
in
rain mn
in
humidity
%
barometer
mb
20260508135515 59 257 10.4 16.5 0.00 0.00 0.00 65 1019.3
20260508135013 58 256 8.7 18.2 0.00 0.00 0.00 64 1019.2
20260508134511 58 248 9.6 15.6 0.00 0.00 0.00 65 1019.4
20260508133507 58 248 9.6 15.6 0.00 0.00 0.00 64 1019.4
20260508133005 58 245 9.6 15.6 0.00 0.00 0.00 64 1019.3
20260508132504 58 246 8.7 13.9 0.00 0.00 0.00 65 1019.4
20260508132003 58 246 9.6 14.8 0.00 0.00 0.00 64 1019.4
20260508131502 58 246 9.6 16.5 0.00 0.00 0.00 63 1019.4
20260508131000 58 244 9.6 17.4 0.00 0.00 0.00 63 1019.3
20260508130458 58 247 7.8 14.8 0.00 0.00 0.00 65 1019.3
20260508125957 58 243 8.7 13.0 0.00 0.00 0.00 62 1019.3
20260508125455 58 245 10.4 14.8 0.00 0.00 0.00 62 1019.3
20260508124954 58 245 9.6 14.8 0.00 0.00 0.00 60 1019.3
20260508124452 58 243 9.6 16.5 0.00 0.00 0.00 60 1019.3
20260508123951 59 242 9.6 16.5 0.00 0.00 0.00 60 1019.3
20260508123450 59 245 8.7 17.4 0.00 0.00 0.00 61 1019.2
20260508122949 59 242 8.7 14.8 0.00 0.00 0.00 62 1019.2
20260508122446 59 247 9.6 15.6 0.00 0.00 0.00 60 1019.1
20260508121945 59 243 8.7 16.5 0.00 0.00 0.00 60 1019.2
20260508121443 59 241 8.7 14.8 0.00 0.00 0.00 60 1019.2
20260508120941 59 244 9.6 17.4 0.00 0.00 0.00 60 1019.3
20260508120440 59 242 8.7 13.9 0.00 0.00 0.00 59 1019.3
20260508115939 59 245 9.6 16.5 0.00 0.00 0.00 59 1019.2
20260508115438 60 247 12.2 18.2 0.00 0.00 0.00 58 1019.2
20260508114936 59 244 9.6 17.4 0.00 0.00 0.00 57 1019.1
20260508113931 60 246 9.6 15.6 0.00 0.00 0.00 59 1019.2
20260508113430 60 247 10.4 21.7 0.00 0.00 0.00 56 1019.2
20260508112926 60 241 9.6 14.8 0.00 0.00 0.00 56 1019.1
20260508112425 60 247 10.4 16.5 0.00 0.00 0.00 56 1019.0
20260508111924 60 248 9.6 18.2 0.00 0.00 0.00 57 1018.9
20260508111423 60 249 11.3 19.1 0.00 0.00 0.00 59 1018.9
20260508110922 60 254 11.3 17.4 0.00 0.00 0.00 57 1018.9
20260508110420 60 250 12.2 19.1 0.00 0.00 0.00 57 1018.8
20260508105919 60 248 9.6 14.8 0.00 0.00 0.00 56 1018.8
20260508104914 60 245 9.6 15.6 0.00 0.00 0.00 53 1018.7
20260508104413 61 244 9.6 17.4 0.00 0.00 0.00 53 1018.7
20260508103910 61 245 9.6 16.5 0.00 0.00 0.00 52 1018.6
20260508102904 61 247 10.4 18.2 0.00 0.00 0.00 52 1018.4
20260508102402 62 246 10.4 17.4 0.00 0.00 0.00 51 1018.4
20260508101357 62 251 10.4 17.4 0.00 0.00 0.00 51 1018.1
20260508100856 62 257 9.6 18.2 0.00 0.00 0.00 51 1018.1
20260508100355 63 257 7.8 12.2 0.00 0.00 0.00 55 1018.0
20260508095853 63 253 7.8 13.0 0.00 0.00 0.00 52 1017.8
20260508095351 63 246 7.8 13.9 0.00 0.00 0.00 47 1017.9
20260508094850 64 236 9.6 14.8 0.00 0.00 0.00 42 1017.8
20260508094348 64 239 11.3 20.0 0.00 0.00 0.00 41 1017.7
20260508093846 64 237 9.6 16.5 0.00 0.00 0.00 43 1017.6
20260508092338 64 235 8.7 13.9 0.00 0.00 0.00 43 1017.3
20260508091837 65 230 8.7 14.8 0.00 0.00 0.00 42 1017.2
20260508091335 65 233 10.4 17.4 0.00 0.00 0.00 41 1017.2
20260508090833 65 229 9.6 15.6 0.00 0.00 0.00 41 1017.2
20260508090332 65 231 10.4 15.6 0.00 0.00 0.00 42 1017.0
20260508084824 65 230 9.6 13.0 0.00 0.00 0.00 40 1016.9
20260508084323 65 228 7.8 13.0 0.00 0.00 0.00 40 1016.8
20260508083822 65 231 9.6 13.9 0.00 0.00 0.00 40 1016.6
20260508082817 65 229 9.6 14.8 0.00 0.00 0.00 39 1016.5
20260508082316 65 229 10.4 19.1 0.00 0.00 0.00 39 1016.4
20260508081814 65 229 8.7 13.9 0.00 0.00 0.00 37 1016.4
20260508080809 65 224 6.1 10.4 0.00 0.00 0.00 37 1016.2
20260508080307 65 227 6.1 10.4 0.00 0.00 0.00 38 1016.1
20260508075804 65 225 6.1 10.4 0.00 0.00 0.00 38 1016.2
20260508074759 65 223 7.8 12.2 0.00 0.00 0.00 37 1015.9
20260508074258 65 222 7.0 11.3 0.00 0.00 0.00 38 1015.7
20260508073253 66 222 7.8 14.8 0.00 0.00 0.00 36 1015.6
20260508072751 66 224 7.8 13.0 0.00 0.00 0.00 36 1015.5
20260508071747 66 226 6.1 12.2 0.00 0.00 0.00 36 1015.3
20260508071246 66 230 7.8 13.9 0.00 0.00 0.00 36 1015.2
20260508070744 66 234 7.0 11.3 0.00 0.00 0.00 37 1015.2
20260508070240 66 228 7.0 10.4 0.00 0.00 0.00 36 1015.1
20260508065739 66 229 6.1 12.2 0.00 0.00 0.00 36 1014.8
20260508065237 66 234 7.8 12.2 0.00 0.00 0.00 36 1014.8
20260508064735 67 229 6.1 9.6 0.00 0.00 0.00 37 1014.7
20260508063731 67 235 7.0 11.3 0.00 0.00 0.00 38 1014.5
20260508063229 67 241 7.8 13.0 0.00 0.00 0.00 38 1014.4
20260508062727 67 245 8.7 13.9 0.00 0.00 0.00 39 1014.4
20260508062225 68 250 6.1 12.2 0.00 0.00 0.00 40 1014.3
20260508061219 68 255 9.6 14.8 0.00 0.00 0.00 39 1014.3
20260508060716 68 251 9.6 14.8 0.00 0.00 0.00 39 1014.2
20260508055710 68 252 8.7 16.5 0.00 0.00 0.00 39 1014.0
20260508055208 68 262 7.8 14.8 0.00 0.00 0.00 46 1014.1
20260508054704 68 259 10.4 19.1 0.00 0.00 0.00 39 1014.0
20260508052542 68 270 7.8 16.5 0.00 0.00 0.00 39 1013.9
20260508052040 68 265 9.6 14.8 0.00 0.00 0.00 38 1013.9
20260508050219 68 258 11.3 18.2 0.00 0.00 0.00 42 1013.8
20260508045718 68 256 11.3 19.1 0.00 0.00 0.00 37 1013.8
20260508045217 68 260 11.3 19.1 0.00 0.00 0.00 39 1013.8
20260508044715 68 259 11.3 21.7 0.00 0.00 0.00 40 1013.9
20260508043709 67 261 11.3 20.0 0.00 0.00 0.00 38 1013.8
20260508043208 67 278 8.7 18.2 0.00 0.00 0.00 45 1013.8
20260508042707 67 265 8.7 16.5 0.00 0.00 0.00 41 1013.9
20260508042205 67 283 7.8 19.1 0.00 0.00 0.00 40 1013.8
20260508041705 67 288 6.1 14.8 0.00 0.00 0.00 47 1013.8
20260508035503 67 267 9.6 17.4 0.00 0.00 0.00 44 1013.8
20260508035002 67 291 7.8 15.6 0.00 0.00 0.00 41 1013.9
20260508034500 66 281 9.6 17.4 0.00 0.00 0.00 43 1013.9
20260508033958 66 269 11.3 18.2 0.00 0.00 0.00 42 1014.0
20260508033457 66 262 11.3 21.7 0.00 0.00 0.00 42 1014.0
20260508032955 66 269 11.3 20.9 0.00 0.00 0.00 41 1014.0
20260508032453 66 291 9.6 18.2 0.00 0.00 0.00 42 1014.1
20260508031951 65 285 8.7 18.2 0.00 0.00 0.00 45 1014.2
20260508030946 65 280 9.6 17.4 0.00 0.00 0.00 43 1014.2
20260508030445 65 265 12.2 21.7 0.00 0.00 0.00 43 1014.3
20260508025941 65 285 8.7 15.6 0.00 0.00 0.00 43 1014.4
20260508024935 64 270 11.3 19.1 0.00 0.00 0.00 43 1014.5
20260508024434 64 274 11.3 19.1 0.00 0.00 0.00 43 1014.6
20260508023933 64 287 8.7 16.5 0.00 0.00 0.00 43 1014.7
20260508023431 65 298 7.8 15.6 0.00 0.00 0.00 46 1014.7
20260508022930 64 271 11.3 17.4 0.00 0.00 0.00 47 1014.7
20260508022428 63 267 10.4 19.1 0.00 0.00 0.00 43 1014.7
20260508021927 63 268 10.4 17.4 0.00 0.00 0.00 45 1014.9
20260508020921 63 275 9.6 18.2 0.00 0.00 0.00 49 1014.9
20260508020419 63 279 9.6 20.0 0.00 0.00 0.00 49 1015.0
20260508015917 62 277 11.3 19.1 0.00 0.00 0.00 44 1015.1
20260508015416 62 276 9.6 17.4 0.00 0.00 0.00 49 1015.2
20260508014914 62 270 12.2 20.0 0.00 0.00 0.00 45 1015.3
20260508014413 62 269 11.3 20.0 0.00 0.00 0.00 46 1015.3
20260508013911 62 270 10.4 17.4 0.00 0.00 0.00 47 1015.4
20260508013409 62 269 11.3 18.2 0.00 0.00 0.00 46 1015.5
20260508012908 62 279 9.6 19.1 0.00 0.00 0.00 47 1015.5
20260508012406 62 281 9.6 19.1 0.00 0.00 0.00 52 1015.7
20260508011903 63 299 8.7 15.6 0.00 0.00 0.00 46 1015.7
20260508011401 61 284 8.7 15.6 0.00 0.00 0.00 48 1015.7
20260508010859 61 287 7.0 16.5 0.00 0.00 0.00 48 1015.8
20260508010357 60 278 10.4 20.0 0.00 0.00 0.00 49 1016.0
20260508005856 60 276 11.3 20.9 0.00 0.00 0.00 46 1015.9
20260508005353 60 289 9.6 20.0 0.00 0.00 0.00 49 1016.1
20260508004852 61 300 7.0 14.8 0.00 0.00 0.00 47 1016.2
20260508003846 60 296 9.6 19.1 0.00 0.00 0.00 48 1016.1
20260508003345 60 288 10.4 19.1 0.00 0.00 0.00 51 1016.2
20260508002844 59 284 11.3 20.9 0.00 0.00 0.00 50 1016.2
20260508002342 60 295 9.6 19.1 0.00 0.00 0.00 52 1016.3
20260508001839 61 307 9.6 18.2 0.00 0.00 0.00 51 1016.4
20260508000834 58 288 10.4 20.9 0.00 0.00 0.00 53 1016.4
20260508000334 59 294 9.6 18.2 0.00 0.00 0.00 55 1016.5
20260507235831 59 291 11.3 19.1 0.00 0.00 0.00 50 1016.5
20260507235328 60 306 12.2 21.7 0.00 0.00 0.00 48 1016.5
20260507234826 58 291 10.4 21.7 0.00 0.00 0.00 54 1016.5
20260507233821 57 289 11.3 20.0 0.00 0.00 0.00 52 1016.6
20260507233320 57 289 11.3 20.0 0.00 0.00 0.00 49 1016.7
20260507232817 57 293 9.6 19.1 0.00 0.00 0.00 52 1016.7
20260507232316 58 306 7.8 16.5 0.00 0.00 0.00 53 1016.6
20260507231813 57 295 10.4 20.0 0.00 0.00 0.00 53 1016.7
20260507231312 57 306 7.8 14.8 0.00 0.00 0.00 58 1016.8
20260507230811 56 292 9.6 25.2 0.00 0.00 0.00 57 1016.9
20260507230310 57 304 10.4 17.4 0.00 0.00 0.00 53 1016.9
20260507225808 57 305 11.3 19.1 0.00 0.00 0.00 53 1016.7
20260507224258 56 308 11.3 20.9 0.00 0.00 0.00 54 1016.9
20260507223757 56 310 10.4 18.2 0.00 0.00 0.00 53 1017.0
20260507223256 56 309 10.4 19.1 0.00 0.00 0.00 59 1016.9
20260507222252 54 302 11.3 20.0 0.00 0.00 0.00 55 1016.9
20260507221749 55 307 11.3 17.4 0.00 0.00 0.00 57 1016.9
20260507221248 55 309 11.3 18.2 0.00 0.00 0.00 58 1016.9
20260507220747 54 306 11.3 20.0 0.00 0.00 0.00 56 1016.8
20260507220246 54 300 10.4 19.1 0.00 0.00 0.00 54 1016.8
20260507215743 54 304 10.4 19.1 0.00 0.00 0.00 54 1016.7
20260507215241 53 301 13.0 20.0 0.00 0.00 0.00 54 1016.7
20260507214738 53 310 11.3 20.0 0.00 0.00 0.00 57 1016.7
20260507213231 53 313 12.2 18.2 0.00 0.00 0.00 58 1016.7
20260507212728 53 307 11.3 18.2 0.00 0.00 0.00 60 1016.6
20260507212226 53 305 11.3 19.1 0.00 0.00 0.00 58 1016.5
20260507211222 53 309 10.4 17.4 0.00 0.00 0.00 61 1016.7
20260507210720 52 309 10.4 19.1 0.00 0.00 0.00 63 1016.7
20260507210219 52 304 10.4 18.2 0.00 0.00 0.00 60 1016.8
20260507205718 52 301 9.6 18.2 0.00 0.00 0.00 58 1016.8
20260507205215 52 306 9.6 20.0 0.00 0.00 0.00 60 1016.7
20260507204712 52 304 9.6 20.9 0.00 0.00 0.00 62 1016.6
20260507204211 52 297 9.6 16.5 0.00 0.00 0.00 60 1016.7
20260507203206 52 304 9.6 18.2 0.00 0.00 0.00 63 1016.7
20260507202705 52 307 9.6 17.4 0.00 0.00 0.00 56 1016.7
20260507202203 52 305 9.6 19.1 0.00 0.00 0.00 58 1016.6
20260507201700 52 300 9.6 17.4 0.00 0.00 0.00 61 1016.6
20260507201158 52 303 11.3 19.1 0.00 0.00 0.00 58 1016.5
20260507200657 52 307 10.4 18.2 0.00 0.00 0.00 62 1016.5
20260507200154 52 309 8.7 18.2 0.00 0.00 0.00 59 1016.5
20260507195653 52 306 9.6 15.6 0.00 0.00 0.00 61 1016.5
20260507194649 52 308 9.6 17.4 0.00 0.00 0.00 59 1016.3
20260507194148 53 305 9.6 16.5 0.00 0.00 0.00 60 1016.2
20260507193646 53 279 10.4 20.9 0.00 0.00 0.00 55 1016.1
20260507193145 53 286 10.4 19.1 0.00 0.00 0.00 58 1016.2
20260507192644 53 283 9.6 19.1 0.00 0.00 0.00 61 1016.1
20260507192143 53 298 8.7 18.2 0.00 0.00 0.00 63 1016.1
20260507191137 53 272 12.2 24.3 0.00 0.00 0.00 64 1016.2
20260507190634 53 266 13.0 21.7 0.00 0.00 0.00 58 1016.2
20260507190133 52 260 13.9 22.6 0.00 0.00 0.00 59 1016.1
20260507185631 53 265 14.8 25.2 0.00 0.00 0.00 53 1016.0
20260507184626 52 259 14.8 24.3 0.00 0.00 0.00 57 1016.1
20260507184123 52 260 14.8 25.2 0.00 0.00 0.00 55 1016.1
20260507183621 52 262 13.0 25.2 0.00 0.00 0.00 54 1016.0
20260507183120 52 263 12.2 20.9 0.00 0.00 0.00 56 1016.0
20260507182619 52 263 13.9 22.6 0.00 0.00 0.00 54 1016.0
20260507182116 53 266 13.0 23.5 0.00 0.00 0.00 51 1016.1
20260507181111 52 264 15.6 26.1 0.00 0.00 0.00 52 1016.0
20260507180610 52 264 15.6 24.3 0.00 0.00 0.00 49 1016.0
20260507180108 53 271 13.0 22.6 0.00 0.00 0.00 60 1016.2
20260507174600 52 260 13.9 25.2 0.00 0.00 0.00 59 1016.1
20260507173556 53 258 12.2 22.6 0.00 0.00 0.00 60 1016.2
20260507172552 53 260 12.2 21.7 0.00 0.00 0.00 56 1016.3
20260507171547 53 261 13.9 22.6 0.00 0.00 0.00 52 1016.2
20260507171045 53 266 12.2 20.0 0.00 0.00 0.00 56 1016.3
20260507170544 53 260 13.9 24.3 0.00 0.00 0.00 49 1016.3
20260507170043 53 271 13.0 25.2 0.00 0.00 0.00 50 1016.4
20260507165540 53 268 11.3 20.0 0.00 0.00 0.00 54 1016.6
20260507165039 53 264 12.2 19.1 0.00 0.00 0.00 49 1016.5
20260507164538 53 260 14.8 23.5 0.00 0.00 0.00 52 1016.6
20260507164037 53 260 13.9 24.3 0.00 0.00 0.00 50 1016.5
20260507163031 53 261 15.6 26.9 0.00 0.00 0.00 49 1016.4
20260507162530 53 257 13.0 24.3 0.00 0.00 0.00 56 1016.7
20260507162029 53 258 14.8 28.7 0.00 0.00 0.00 52 1016.6
20260507161528 53 260 14.8 26.1 0.00 0.00 0.00 55 1016.7
20260507160020 53 259 15.6 25.2 0.00 0.00 0.00 50 1016.8
20260507155016 53 261 13.0 23.5 0.00 0.00 0.00 51 1016.9
20260507154514 53 256 11.3 20.0 0.00 0.00 0.00 56 1016.9
20260507154011 53 258 13.0 22.6 0.00 0.00 0.00 54 1016.9
20260507153510 53 259 13.0 24.3 0.00 0.00 0.00 53 1016.9
20260507152505 53 255 10.4 22.6 0.00 0.00 0.00 59 1017.0
20260507151459 53 263 13.9 23.5 0.00 0.00 0.00 47 1017.1
20260507150958 53 261 13.9 26.1 0.00 0.00 0.00 46 1017.1
20260507150456 53 258 15.6 26.1 0.00 0.00 0.00 48 1017.1
20260507145954 53 256 14.8 25.2 0.00 0.00 0.00 49 1017.1
20260507145453 53 259 12.2 23.5 0.00 0.00 0.00 51 1017.1
20260507144952 53 258 16.5 26.1 0.00 0.00 0.00 50 1017.0
20260507143948 53 258 17.4 26.9 0.00 0.00 0.00 51 1017.1
20260507143447 53 256 16.5 25.2 0.00 0.00 0.00 50 1017.1
20260507142944 53 259 16.5 26.9 0.00 0.00 0.00 46 1017.1
20260507141939 54 261 14.8 24.3 0.00 0.00 0.00 50 1017.1
20260507141438 54 262 12.2 24.3 0.00 0.00 0.00 48 1017.0
20260507140937 54 259 14.8 24.3 0.00 0.00 0.00 50 1017.0
20260507140436 53 260 13.9 21.7 0.00 0.00 0.00 52 1017.0
20260507135934 54 246 8.7 18.2 0.00 0.00 0.00 57 1017.0